Winner, SD

2:31 PM CST on December 17, 2017 (GMT -0600)
Winner

Weather History for KICR - January, 2012

Change the Weather History Date:

Wednesday, January 18, 2012

  Actual Average Record
Temperature  
Mean Temperature 17 °F 25 °F  
Max Temperature 34 °F 36 °F 59 °F (2013)
Min Temperature -1 °F 14 °F -4 °F (2011)
Degree Days  
Heating Degree Days 48 40  
Month to date heating degree days 596 725  
Since 1 July heating degree days 2881 3431  
Cooling Degree Days 0 0  
Month to date cooling degree days 0 0  
Year to date cooling degree days 0 0  
Moisture  
Dew Point 3 °F    
Average Humidity 57    
Maximum Humidity 72    
Minimum Humidity 42    
Precipitation  
Precipitation 0.00 in 0.01 in 0.04 in (2011)
Month to date precipitation 0.02 0.13  
Year to date precipitation 0.02 0.13  
Sea Level Pressure  
Sea Level Pressure 29.95 in    
Wind  
Wind Speed 15 mph (WNW)    
Max Wind Speed 32 mph    
Max Gust Speed 40 mph    
Visibility 10 miles    
Events      
T = Trace of Precipitation, MM = Missing Value Source: NWS Daily Summary

Daily Weather History Graph

Daily Weather History Graph

Search for Another Location

Airport or City:

Trip Planner

Search our weather history database for the weather conditions in past years. The results will help you decide how hot, cold, wet, or windy it might be!

Date:

Astronomy

Jan. 18, 2012 Rise Set
Actual Time 8:07 AM CST 5:32 PM CST
Civil Twilight 7:36 AM CST 6:03 PM CST
Nautical Twilight 7:00 AM CST 6:38 PM CST
Astronomical Twilight 6:26 AM CST 7:12 PM CST
Moon 3:39 AM CST (1/18) 1:11 PM CST (1/18)
Length of Visible Light 10h 27m
Length of Day
9h 24m
Waning Crescent, 24% of the Moon is Illuminated
Jan 18
Waning Crescent
Jan 23
New
Jan 30
First Quarter
Feb 7
Full
Feb 14
Last Quarter

Hourly Weather History & Observations

Time (CST) Temp. Windchill Dew Point Humidity Pressure Visibility Wind Dir Wind Speed Gust Speed Precip Events Conditions
12:53 AM 19.0 °F 3.2 °F 7.0 °F 59% 30.01 in 10.0 mi SSW 19.6 mph - N/A   Clear
1:53 AM 19.0 °F 3.6 °F 6.1 °F 57% 29.96 in 10.0 mi SSW 18.4 mph - N/A   Clear
2:53 AM 19.9 °F 5.7 °F 5.0 °F 52% 29.92 in 10.0 mi SSW 16.1 mph - N/A   Clear
3:53 AM 19.0 °F 5.6 °F 3.9 °F 52% 29.88 in 10.0 mi SSW 13.8 mph - N/A   Clear
4:53 AM 18.0 °F 8.7 °F 3.9 °F 54% 29.87 in 10.0 mi SW 6.9 mph - N/A   Clear
5:53 AM 19.0 °F 7.5 °F 3.9 °F 52% 29.86 in 10.0 mi SSW 10.4 mph - N/A   Clear
6:53 AM 21.0 °F 8.6 °F 3.9 °F 48% 29.86 in 10.0 mi WSW 12.7 mph - N/A   Clear
7:53 AM 21.0 °F 9.3 °F 3.9 °F 48% 29.83 in 10.0 mi WSW 11.5 mph - N/A   Clear
8:53 AM 23.0 °F 13.1 °F 5.0 °F 46% 29.84 in 10.0 mi WSW 9.2 mph - N/A   Clear
9:53 AM 28.0 °F 17.0 °F 8.1 °F 43% 29.83 in 10.0 mi WSW 13.8 mph - N/A   Partly Cloudy
10:53 AM 30.9 °F 20.7 °F 10.9 °F 43% 29.83 in 10.0 mi West 13.8 mph - N/A   Scattered Clouds
11:53 AM 33.1 °F 23.9 °F 14.0 °F 46% 29.85 in 10.0 mi WNW 12.7 mph - N/A   Partly Cloudy
12:53 PM 26.1 °F 12.7 °F 12.0 °F 55% 29.89 in 10.0 mi NW 18.4 mph 26.5 mph N/A   Clear
1:53 PM 21.0 °F 3.0 °F 12.0 °F 68% 29.91 in 10.0 mi NW 28.8 mph 35.7 mph N/A   Mostly Cloudy
2:53 PM 15.1 °F -3.7 °F 6.1 °F 68% 29.98 in 10.0 mi NNW 24.2 mph 31.1 mph N/A   Partly Cloudy
3:53 PM 12.0 °F -6.5 °F 1.0 °F 61% 30.02 in 10.0 mi NW 20.7 mph - N/A   Clear
4:53 PM 7.0 °F -12.1 °F -4.0 °F 61% 30.04 in 10.0 mi NNW 18.4 mph - N/A   Clear
5:53 PM 3.9 °F -15.6 °F -7.1 °F 60% 30.06 in 10.0 mi NNW 17.3 mph - N/A   Clear
6:53 PM 3.0 °F -13.3 °F -7.1 °F 63% 30.08 in 10.0 mi NNW 11.5 mph - N/A   Mostly Cloudy
7:53 PM 3.0 °F -14.1 °F -7.1 °F 63% 30.09 in 10.0 mi NNW 12.7 mph - N/A   Overcast
8:53 PM 1.9 °F -16.2 °F -8.0 °F 63% 30.11 in 10.0 mi North 13.8 mph - N/A   Overcast
9:53 PM -0.0 °F -14.2 °F -8.0 °F 69% 30.11 in 10.0 mi North 8.1 mph - N/A   Partly Cloudy
10:53 PM -0.0 °F -16.3 °F -7.1 °F 72% 30.11 in 10.0 mi North 10.4 mph - N/A   Overcast